TimeEST,TemperatureF,Dew PointF,Humidity,Sea Level PressureIn,VisibilityMPH,Wind Direction,Wind SpeedMPH,Gust SpeedMPH,PrecipitationIn,Events,Conditions,WindDirDegrees,DateUTC
12:15 AM,62.6,62.6,100,29.86,10.0,Calm,Calm,-,N/A,,Overcast,0,2012-12-11 05:15:00
12:35 AM,62.6,62.6,100,29.85,10.0,Calm,Calm,-,N/A,,Overcast,0,2012-12-11 05:35:00
12:55 AM,62.6,62.6,100,29.86,10.0,West,3.5,-,N/A,,Overcast,260,2012-12-11 05:55:00
1:15 AM,62.6,62.6,100,29.86,10.0,West,3.5,-,N/A,,Overcast,280,2012-12-11 06:15:00
1:35 AM,62.6,60.8,94,29.87,10.0,NW,6.9,-,N/A,,Overcast,310,2012-12-11 06:35:00
1:55 AM,59.0,59.0,100,29.87,10.0,NW,10.4,17.3,N/A,,Overcast,320,2012-12-11 06:55:00
2:15 AM,59.0,57.2,94,29.87,10.0,NW,8.1,-,N/A,,Overcast,310,2012-12-11 07:15:00
2:35 AM,57.2,57.2,100,29.87,10.0,Calm,Calm,-,N/A,,Overcast,0,2012-12-11 07:35:00
2:55 AM,57.2,55.4,94,29.88,10.0,NW,5.8,-,N/A,,Overcast,310,2012-12-11 07:55:00
3:15 AM,55.4,55.4,100,29.87,10.0,North,8.1,-,N/A,,Overcast,350,2012-12-11 08:15:00
3:35 AM,55.4,53.6,94,29.88,10.0,NNW,5.8,-,N/A,,Overcast,340,2012-12-11 08:35:00
3:55 AM,55.4,53.6,94,29.89,10.0,NNW,8.1,-,N/A,,Overcast,330,2012-12-11 08:55:00
4:15 AM,55.4,53.6,94,29.90,10.0,NNW,4.6,-,N/A,,Overcast,340,2012-12-11 09:15:00
4:35 AM,55.4,53.6,94,29.91,10.0,NNW,4.6,-,N/A,,Overcast,340,2012-12-11 09:35:00
4:55 AM,55.4,53.6,94,29.91,10.0,NNW,5.8,-,N/A,,Overcast,330,2012-12-11 09:55:00
5:15 AM,55.4,53.6,94,29.92,10.0,NNW,4.6,-,N/A,,Overcast,330,2012-12-11 10:15:00
5:35 AM,55.4,53.6,94,29.92,10.0,NNW,5.8,-,N/A,,Overcast,330,2012-12-11 10:35:00
5:55 AM,53.6,53.6,100,29.93,10.0,North,5.8,-,N/A,,Overcast,350,2012-12-11 10:55:00
6:15 AM,53.6,51.8,94,29.94,10.0,NNW,8.1,-,N/A,,Overcast,340,2012-12-11 11:15:00
6:35 AM,53.6,51.8,94,29.94,10.0,NNW,6.9,-,N/A,,Overcast,340,2012-12-11 11:35:00
6:55 AM,53.6,51.8,94,29.95,7.0,North,3.5,-,N/A,,Overcast,350,2012-12-11 11:55:00
7:15 AM,53.6,51.8,94,29.96,10.0,NNW,5.8,-,N/A,,Overcast,340,2012-12-11 12:15:00
7:35 AM,53.6,51.8,94,29.98,10.0,North,5.8,-,N/A,,Overcast,350,2012-12-11 12:35:00
7:55 AM,53.6,51.8,94,29.99,10.0,North,4.6,-,N/A,,Overcast,360,2012-12-11 12:55:00
8:15 AM,53.6,51.8,94,30.00,10.0,Calm,Calm,-,N/A,Rain,Light Rain,0,2012-12-11 13:15:00
8:35 AM,53.6,50.0,88,30.01,10.0,NNW,5.8,-,N/A,,Overcast,330,2012-12-11 13:35:00
8:55 AM,51.8,50.0,94,30.02,5.0,NW,3.5,-,N/A,Rain,Light Rain,320,2012-12-11 13:55:00
9:15 AM,51.8,50.0,94,30.02,10.0,NNW,4.6,-,N/A,,Overcast,340,2012-12-11 14:15:00
9:35 AM,51.8,51.8,100,30.01,10.0,North,3.5,-,N/A,,Overcast,10,2012-12-11 14:35:00
9:55 AM,51.8,50.0,94,30.02,10.0,Calm,Calm,-,N/A,,Overcast,0,2012-12-11 14:55:00
10:15 AM,51.8,50.0,94,30.03,10.0,North,4.6,-,N/A,,Overcast,10,2012-12-11 15:15:00
10:35 AM,53.6,50.0,88,30.04,10.0,NNW,5.8,-,N/A,,Overcast,340,2012-12-11 15:35:00
10:55 AM,53.6,48.2,82,30.05,10.0,North,5.8,-,N/A,,Overcast,350,2012-12-11 15:55:00
11:15 AM,53.6,48.2,82,30.05,10.0,North,4.6,-,N/A,,Overcast,360,2012-12-11 16:15:00
11:35 AM,53.6,48.2,82,30.04,10.0,North,3.5,-,N/A,,Overcast,10,2012-12-11 16:35:00
11:55 AM,53.6,50.0,88,30.03,10.0,NNE,4.6,-,N/A,,Overcast,20,2012-12-11 16:55:00
12:15 PM,53.6,48.2,82,30.05,10.0,NNW,5.8,-,N/A,,Overcast,340,2012-12-11 17:15:00
12:35 PM,53.6,48.2,82,30.05,10.0,Calm,Calm,-,N/A,,Overcast,0,2012-12-11 17:35:00
12:55 PM,53.6,48.2,82,30.03,10.0,NNW,4.6,-,N/A,,Overcast,340,2012-12-11 17:55:00
1:15 PM,53.6,48.2,82,30.02,10.0,North,4.6,-,N/A,,Overcast,350,2012-12-11 18:15:00
1:35 PM,53.6,48.2,82,30.02,10.0,NNW,5.8,-,N/A,,Overcast,330,2012-12-11 18:35:00
1:55 PM,53.6,48.2,82,30.02,10.0,NNW,4.6,-,N/A,,Overcast,330,2012-12-11 18:55:00
2:15 PM,53.6,46.4,77,30.01,10.0,NNE,5.8,-,N/A,,Overcast,20,2012-12-11 19:15:00
2:35 PM,55.4,46.4,72,30.01,10.0,Calm,Calm,-,N/A,,Overcast,0,2012-12-11 19:35:00
2:55 PM,55.4,46.4,72,30.03,10.0,NNW,4.6,-,N/A,,Overcast,340,2012-12-11 19:55:00
3:15 PM,55.4,46.4,72,30.02,10.0,North,4.6,-,N/A,,Overcast,350,2012-12-11 20:15:00
3:35 PM,55.4,46.4,72,30.03,10.0,NW,3.5,-,N/A,,Overcast,320,2012-12-11 20:35:00
3:55 PM,55.4,46.4,72,30.03,10.0,NW,3.5,-,N/A,,Overcast,320,2012-12-11 20:55:00
4:15 PM,55.4,46.4,72,30.04,10.0,North,3.5,-,N/A,,Overcast,350,2012-12-11 21:15:00
4:35 PM,53.6,48.2,82,30.04,10.0,Calm,Calm,-,N/A,,Overcast,0,2012-12-11 21:35:00
4:55 PM,53.6,46.4,77,30.05,10.0,NNW,4.6,-,N/A,,Overcast,330,2012-12-11 21:55:00
5:15 PM,53.6,46.4,77,30.06,10.0,NNW,4.6,-,N/A,,Overcast,330,2012-12-11 22:15:00
5:35 PM,51.8,46.4,82,30.05,10.0,NNW,4.6,-,N/A,,Drizzle,340,2012-12-11 22:35:00
5:55 PM,51.8,46.4,82,30.05,10.0,North,4.6,-,N/A,Rain,Rain,10,2012-12-11 22:55:00
6:15 PM,51.8,46.4,82,30.05,10.0,North,3.5,-,N/A,Rain,Light Rain,10,2012-12-11 23:15:00
6:35 PM,50.0,46.4,87,30.06,10.0,North,3.5,-,N/A,Rain,Light Rain,350,2012-12-11 23:35:00
6:55 PM,50.0,46.4,87,30.06,10.0,North,3.5,-,N/A,Rain,Light Rain,360,2012-12-11 23:55:00
7:15 PM,50.0,44.6,82,30.07,10.0,NNW,3.5,-,N/A,Rain,Rain,340,2012-12-12 00:15:00
7:35 PM,50.0,44.6,82,30.07,10.0,NNE,3.5,-,N/A,Rain,Light Rain,20,2012-12-12 00:35:00
7:55 PM,50.0,44.6,82,30.08,10.0,North,3.5,-,N/A,,Overcast,10,2012-12-12 00:55:00
8:15 PM,50.0,44.6,82,30.08,10.0,North,4.6,-,N/A,,Overcast,360,2012-12-12 01:15:00
8:35 PM,50.0,42.8,76,30.09,10.0,North,3.5,-,N/A,,Overcast,360,2012-12-12 01:35:00
8:55 PM,50.0,42.8,76,30.10,10.0,North,3.5,-,N/A,,Overcast,10,2012-12-12 01:55:00
9:15 PM,50.0,42.8,76,30.10,10.0,NNE,4.6,-,N/A,,Overcast,20,2012-12-12 02:15:00
9:35 PM,50.0,42.8,76,30.11,10.0,NNW,4.6,-,N/A,Thunderstorm,Overcast,330,2012-12-12 02:35:00
9:55 PM,50.0,42.8,76,30.12,10.0,North,3.5,-,N/A,,Mostly Cloudy,360,2012-12-12 02:55:00
10:15 PM,50.0,42.8,76,30.13,10.0,Calm,Calm,-,N/A,,Mostly Cloudy,0,2012-12-12 03:15:00
10:35 PM,50.0,42.8,76,30.14,10.0,Calm,Calm,-,N/A,,Overcast,0,2012-12-12 03:35:00
10:55 PM,50.0,42.8,76,30.14,10.0,NNW,5.8,-,N/A,,Mostly Cloudy,340,2012-12-12 03:55:00
11:15 PM,50.0,42.8,76,30.15,10.0,NW,3.5,-,N/A,,Mostly Cloudy,310,2012-12-12 04:15:00
11:35 PM,48.2,42.8,82,30.14,10.0,North,4.6,-,N/A,,Mostly Cloudy,350,2012-12-12 04:35:00
11:55 PM,48.2,42.8,82,30.16,10.0,North,3.5,-,N/A,,Mostly Cloudy,10,2012-12-12 04:55:00